[[{"header":{"parameterUnit":"m.s-1","parameterCategory":1,"la1":30.2991,"la2":30.254,"lo1":-89.0895,"lo2":-89.0444,"dy":0.0017,"dx":0.0017,"nx":28,"ny":28,"refTime":"2023-11-04T03:00:00:Z","depth":0,"parameterNumber":2,"parameterNumberName":"U-component_of_WINDS"},"data":[0,0,0,0,0,0,0,0,0,0,0,0,0,0,0,0,0,0,0,0,0,0,0,0,0,0,0,0,0,0,0,0,0,0,0,0,0,0,0,0,0,0,0,0,0,0,0,0,0,0,0,0,0,0,0,0,0,0,0.0064,0.0064,0,0.0066,0.0066,0.0066,0.0065,0.0065,0.0065,0.0065,0.0067,0.0067,0.0067,0,0,0,0,0,0,0,0,0,0,0,0,0,0.0059,0.0059,0.0064,0.0064,0.0064,0.0066,0.0066,0.0066,0.0066,0.0065,0.0065,0.0065,0.0067,0.0067,0.0067,0,0,0,0,0,0,0,0,0,0,0,0,0,0.0061,0.0059,0.0064,0.0064,0.0064,0.0066,0.0066,0.0066,0.0066,0.0065,0.0065,0.0065,0.0067,0.0067,0.0067,0.0069,0,0,0.0067,0.0068,0,0,0,0,0,0,0,0,0.0061,0.0061,0.0064,0.0064,0.0064,0.0065,0.0065,0.0067,0.0066,0.0065,0.0065,0.0065,0.0066,0.0067,0.0067,0.0069,0.0069,0.0067,0.0068,0.0068,0.0068,0,0,0,0,0,0,0,0.0061,0.0061,0.0065,0.0064,0.0064,0.0064,0.0064,0.0065,0.0066,0.0065,0.0065,0.0065,0.0066,0.0067,0.0067,0.0069,0.0067,0.0068,0.0068,0.0068,0.0072,0.0072,0,0,0,0,0,0,0.0061,0.0061,0.0065,0.0065,0.0062,0.0064,0.0064,0.0065,0.0066,0.0066,0.0065,0.0065,0.0067,0.0067,0.0067,0.0069,0.0068,0.0068,0.0068,0.0072,0.0072,0.0072,0,0,0,0,0,0,0.006,0.0061,0.0065,0.0063,0.0063,0.0064,0.0065,0.0065,0.0066,0.0066,0.0066,0.0066,0.0067,0.0067,0.0068,0.0069,0.0068,0.0068,0.0072,0.0072,0.0072,0.0073,0,0,0,0,0,0,0.006,0.0061,0.0062,0.0063,0.0063,0.0066,0.0065,0.0065,0.0066,0.0066,0.0067,0.0067,0.0067,0.0068,0.0068,0.0069,0.0068,0.0072,0.0072,0.0072,0.0073,0.0073,0.0073,0,0,0,0,0,0.006,0.0062,0.0062,0.0062,0.0065,0.0066,0.0066,0.0067,0.0066,0.0067,0.0067,0.0067,0.0069,0.0068,0.0069,0.0069,0.0072,0.0072,0.0072,0.0073,0.0073,0.0073,0,0,0,0,0,0,0.0061,0.0062,0.0062,0.0064,0.0065,0.0066,0.0067,0.0067,0.0068,0.0068,0.0068,0.0068,0.0069,0.0069,0.0069,0.0071,0.007,0.007,0.0071,0.0071,0.0071,0.0071,0.0068,0,0,0,0,0,0.0062,0.0063,0.0064,0.0066,0.0066,0.0067,0.0067,0.0067,0.0068,0.0068,0.0069,0.0069,0.007,0.007,0.0071,0.0073,0.0073,0.0073,0.0073,0.0074,0.0074,0.0074,0.0074,0.0072,0.0072,0.0072,0,0,0.0063,0.0063,0.0064,0.0066,0.0067,0.0068,0.0067,0.0068,0.0069,0.0068,0.007,0.007,0.007,0.0072,0.0072,0.0072,0.0074,0.0074,0.0074,0.0074,0.0074,0.0074,0.0074,0.0072,0.0072,0.0072,0,0,0.0065,0.0066,0.0068,0.0068,0.0069,0.0069,0.0069,0.007,0.007,0.0071,0.0071,0.0072,0.0073,0.0073,0.0074,0.0075,0.0075,0.0075,0.0076,0.0077,0.0077,0.0077,0.0077,0.0077,0.0076,0.0076,0.0076,0,0.0066,0.0068,0.0068,0.0069,0.007,0.007,0.0071,0.0071,0.0072,0.0072,0.0072,0.0073,0.0074,0.0075,0.0075,0.0076,0.0076,0.0075,0.0077,0.0077,0.0077,0.0077,0.0077,0.0076,0.0076,0.0076,0.0076,0,0.0069,0.007,0.0071,0.0072,0.0073,0.0074,0.0074,0.0075,0.0074,0.0074,0.0075,0.0076,0.0076,0.0077,0.0076,0.0077,0.0077,0.0077,0.0076,0.0077,0.0077,0.0078,0.0076,0.0076,0.0076,0.0076,0,0,0.0073,0.0073,0.0074,0.0074,0.0074,0.0075,0.0076,0.0077,0.0077,0.0077,0.0078,0.0079,0.0078,0.0079,0.0078,0.0079,0.0079,0.0078,0.0078,0.0078,0.008,0.008,0.0081,0.0079,0.0079,0.0079,0.008,0,0.0075,0.0077,0.0077,0.0078,0.0079,0.0078,0.0079,0.0079,0.0079,0.0079,0.0079,0.008,0.0079,0.0079,0.008,0.0079,0.008,0.0079,0.0079,0.0079,0.0079,0.0081,0.0081,0.0082,0.008,0.008,0.008,0,0.0078,0.0078,0.008,0.008,0.008,0.0081,0.0081,0.0082,0.0082,0.0081,0.0081,0.0081,0.0082,0.0081,0.0081,0.0081,0.0081,0.0081,0.0081,0.0081,0.008,0.008,0.0082,0.0082,0.008,0.008,0.008,0,0.008,0.0081,0.0082,0.0082,0.0082,0.0082,0.0082,0.0082,0.0082,0.0083,0.0083,0.0083,0.0083,0.0083,0.0082,0.0082,0.0082,0.0082,0.0082,0.0082,0.0082,0.0082,0.0084,0.0082,0.0082,0.0082,0.0082,0,0.0082,0.0083,0.0082,0.0083,0.0084,0.0083,0.0084,0.0084,0.0084,0.0084,0.0084,0.0084,0.0083,0.0083,0.0083,0.0083,0.0083,0.0083,0.0083,0.0083,0.0083,0.0083,0.0082,0.0083,0.0083,0.0083,0.0083,0,0.0084,0.0084,0.0085,0.0085,0.0085,0.0085,0.0085,0.0085,0.0085,0.0085,0.0085,0.0085,0.0085,0.0084,0.0084,0.0084,0.0084,0.0084,0.0084,0.0084,0.0084,0.0084,0.0086,0.0086,0.0085,0.0085,0.0085,0,0.0086,0.0086,0.0086,0.0086,0.0086,0.0087,0.0087,0.0086,0.0086,0.0086,0.0086,0.0086,0.0086,0.0086,0.0085,0.0085,0.0085,0.0085,0.0085,0.0085,0.0085,0.0085,0.0084,0.0086,0.0086,0.0086,0.0086,0,0.0088,0.0088,0.0088,0.0088,0.0088,0.0088,0.0088,0.0088,0.0088,0.0088,0.0088,0.0088,0.0087,0.0087,0.0087,0.0086,0.0086,0.0086,0.0086,0.0086,0.0086,0.0086,0.0084,0.0086,0.0086,0.0086,0.0086,0.0086,0.009,0.009,0.009,0.009,0.009,0.009,0.009,0.009,0.009,0.0089,0.0089,0.0089,0.0088,0.0088,0.0087,0.0087,0.0087,0.0087,0.0087,0.0087,0.0087,0.0086,0.0087,0.0087,0.0087,0.0087,0.0087,0,0.0092,0.0092,0.0092,0.0092,0.0092,0.0091,0.0091,0.0091,0.0091,0.009,0.009,0.009,0.009,0.0089,0.0088,0.0088,0.0088,0.0088,0.0088,0.0088,0.0087,0.0087,0.0088,0.0088,0.0088,0.0088,0.0088,0.0088,0.0093,0.0094,0.0093,0.0093,0.0093,0.0093,0.0093,0.0092,0.0092,0.0092,0.0091,0.0091,0.009,0.009,0.0089,0.0089,0.0089,0.0089,0.0089,0.0088,0.0088,0.0088,0.0088,0.0089,0.0089,0.009,0.009,0.009]},{"header":{"parameterUnit":"m.s-1","parameterCategory":1,"la1":30.2991,"la2":30.254,"lo1":-89.0895,"lo2":-89.0444,"dy":0.0017,"dx":0.0017,"nx":28,"ny":28,"refTime":"2023-11-04T03:00:00:Z","depth":0,"parameterNumber":3,"parameterNumberName":"V-component_of_WINDS"},"data":[0,0,0,0,0,0,0,0,0,0,0,0,0,0,0,0,0,0,0,0,0,0,0,0,0,0,0,0,0,0,0,0,0,0,0,0,0,0,0,0,0,0,0,0,0,0,0,0,0,0,0,0,0,0,0,0,0,0,-1.2287,-1.2288,0,-1.2429,-1.2431,-1.2433,-1.2502,-1.2502,-1.2501,-1.2501,-1.2647,-1.2651,-1.2655,0,0,0,0,0,0,0,0,0,0,0,0,0,-1.2074,-1.2077,-1.2287,-1.2288,-1.229,-1.2429,-1.2431,-1.2433,-1.2502,-1.2502,-1.2501,-1.2501,-1.2646,-1.265,-1.2655,0,0,0,0,0,0,0,0,0,0,0,0,0,-1.2186,-1.2078,-1.2286,-1.2341,-1.2347,-1.2429,-1.2431,-1.2433,-1.2502,-1.2502,-1.2501,-1.2501,-1.2644,-1.265,-1.2656,-1.2693,0,0,-1.2674,-1.2676,0,0,0,0,0,0,0,0,-1.218,-1.2194,-1.2331,-1.2338,-1.2345,-1.2448,-1.2409,-1.252,-1.2502,-1.2443,-1.2501,-1.2501,-1.2581,-1.2592,-1.2619,-1.27,-1.2706,-1.2674,-1.2678,-1.268,-1.2682,0,0,0,0,0,0,0,-1.2172,-1.2188,-1.2343,-1.2333,-1.2341,-1.2359,-1.2375,-1.2431,-1.251,-1.2448,-1.2454,-1.2469,-1.2584,-1.2613,-1.2623,-1.2708,-1.2674,-1.2679,-1.2683,-1.2685,-1.2828,-1.2828,0,0,0,0,0,0,-1.2155,-1.2181,-1.2339,-1.2347,-1.226,-1.2362,-1.238,-1.2415,-1.251,-1.2525,-1.2469,-1.2472,-1.2603,-1.2616,-1.2628,-1.2679,-1.268,-1.2686,-1.2689,-1.2828,-1.2828,-1.2828,0,0,0,0,0,0,-1.215,-1.2168,-1.2333,-1.2266,-1.2288,-1.2366,-1.2404,-1.2417,-1.2446,-1.2526,-1.2541,-1.2484,-1.2603,-1.262,-1.2677,-1.2685,-1.2688,-1.2694,-1.2827,-1.2828,-1.2828,-1.2779,0,0,0,0,0,0,-1.2144,-1.2166,-1.2181,-1.2266,-1.2291,-1.2379,-1.2405,-1.242,-1.2456,-1.2461,-1.2543,-1.2557,-1.2605,-1.2667,-1.2682,-1.2693,-1.2698,-1.2827,-1.2828,-1.2828,-1.2781,-1.2778,-1.2776,0,0,0,0,0,-1.2136,-1.2162,-1.2182,-1.22,-1.2312,-1.2379,-1.2394,-1.2448,-1.2456,-1.2472,-1.2524,-1.2554,-1.2681,-1.2673,-1.269,-1.2702,-1.2827,-1.2827,-1.2828,-1.2782,-1.2779,-1.2776,0,0,0,0,0,0,-1.2076,-1.2174,-1.2197,-1.2251,-1.2306,-1.2391,-1.2412,-1.2443,-1.2497,-1.2499,-1.2564,-1.2582,-1.2633,-1.2674,-1.2662,-1.2744,-1.2757,-1.2761,-1.2716,-1.2713,-1.2711,-1.2701,-1.2703,0,0,0,0,0,-1.2069,-1.2116,-1.2199,-1.2238,-1.2265,-1.2333,-1.2365,-1.2402,-1.2462,-1.2485,-1.2541,-1.2598,-1.2651,-1.2684,-1.2737,-1.2787,-1.2806,-1.2804,-1.2801,-1.2799,-1.2802,-1.2832,-1.2832,-1.283,-1.283,-1.283,0,0,-1.2055,-1.2114,-1.214,-1.2227,-1.2275,-1.2322,-1.2353,-1.2401,-1.2437,-1.2493,-1.255,-1.2593,-1.2661,-1.2714,-1.274,-1.2749,-1.2806,-1.28,-1.2797,-1.2802,-1.2832,-1.2832,-1.2832,-1.2831,-1.2831,-1.2831,0,0,-1.2054,-1.2103,-1.2142,-1.2189,-1.226,-1.2306,-1.2315,-1.2395,-1.2425,-1.2484,-1.2527,-1.257,-1.266,-1.2707,-1.2742,-1.2759,-1.2789,-1.2774,-1.2762,-1.279,-1.279,-1.279,-1.2797,-1.2799,-1.2776,-1.2776,-1.2776,0,-1.2028,-1.2101,-1.2158,-1.2204,-1.2241,-1.2294,-1.2334,-1.2377,-1.2461,-1.2486,-1.2495,-1.2608,-1.2658,-1.2723,-1.2727,-1.2754,-1.2766,-1.2765,-1.2785,-1.2786,-1.2788,-1.2795,-1.2797,-1.2774,-1.2774,-1.2775,-1.2775,0,-1.2065,-1.2115,-1.2137,-1.2218,-1.2258,-1.2301,-1.2364,-1.2398,-1.2431,-1.2476,-1.2535,-1.2596,-1.2662,-1.268,-1.2713,-1.2751,-1.2754,-1.2773,-1.2788,-1.2785,-1.2792,-1.2795,-1.2771,-1.2772,-1.2772,-1.2773,0,0,-1.2031,-1.2143,-1.215,-1.2188,-1.227,-1.231,-1.2355,-1.242,-1.2448,-1.2504,-1.2544,-1.2618,-1.2636,-1.2676,-1.2715,-1.274,-1.275,-1.2756,-1.2759,-1.2753,-1.2795,-1.2781,-1.2783,-1.277,-1.2771,-1.2772,-1.279,0,-1.2042,-1.2125,-1.2178,-1.224,-1.2287,-1.2338,-1.2378,-1.2432,-1.2475,-1.2521,-1.2568,-1.262,-1.264,-1.2665,-1.2692,-1.2743,-1.2759,-1.2742,-1.2808,-1.281,-1.279,-1.2787,-1.2772,-1.2786,-1.2793,-1.2794,-1.2794,0,-1.2066,-1.2122,-1.2188,-1.2266,-1.2288,-1.2322,-1.2386,-1.243,-1.2493,-1.2522,-1.2567,-1.2606,-1.2656,-1.2666,-1.2735,-1.2723,-1.2753,-1.2782,-1.2784,-1.2793,-1.2802,-1.2796,-1.2792,-1.2795,-1.2799,-1.2799,-1.2799,0,-1.2035,-1.2126,-1.2179,-1.2209,-1.2301,-1.2324,-1.2363,-1.2426,-1.2462,-1.2518,-1.2542,-1.2603,-1.2636,-1.2683,-1.2737,-1.2739,-1.2801,-1.2816,-1.2828,-1.2826,-1.2839,-1.2838,-1.284,-1.2857,-1.2857,-1.2857,-1.2857,0,-1.2042,-1.2082,-1.2166,-1.2198,-1.2244,-1.2304,-1.2347,-1.239,-1.2446,-1.2488,-1.2535,-1.2573,-1.2642,-1.2689,-1.2732,-1.2783,-1.2798,-1.2823,-1.2834,-1.282,-1.2816,-1.2841,-1.2841,-1.2858,-1.2857,-1.2857,-1.2857,0,-1.2016,-1.2074,-1.2134,-1.2216,-1.2238,-1.2268,-1.2338,-1.2371,-1.2416,-1.2468,-1.2484,-1.2555,-1.2612,-1.2671,-1.2748,-1.2777,-1.2827,-1.2842,-1.2806,-1.2812,-1.2821,-1.282,-1.284,-1.2846,-1.2857,-1.2857,-1.2857,0,-1.2017,-1.2049,-1.2134,-1.2165,-1.2203,-1.2253,-1.229,-1.235,-1.2387,-1.2461,-1.2485,-1.2546,-1.2598,-1.2687,-1.2745,-1.2805,-1.2822,-1.2825,-1.2831,-1.2816,-1.2823,-1.2821,-1.2825,-1.2823,-1.2822,-1.2822,-1.2822,0,-1.2013,-1.204,-1.2092,-1.2154,-1.2196,-1.2248,-1.2301,-1.2324,-1.2394,-1.2433,-1.2492,-1.2532,-1.2612,-1.2671,-1.2738,-1.2779,-1.2812,-1.2819,-1.2825,-1.2811,-1.2789,-1.2802,-1.2801,-1.2819,-1.2819,-1.2819,-1.2819,-1.282,-1.2002,-1.2032,-1.2097,-1.2153,-1.2199,-1.2248,-1.2283,-1.2333,-1.2383,-1.2452,-1.2484,-1.2544,-1.2607,-1.2699,-1.2739,-1.2787,-1.2796,-1.2805,-1.2807,-1.2808,-1.2805,-1.2781,-1.2799,-1.2799,-1.2799,-1.2799,-1.28,0,-1.2001,-1.2045,-1.2096,-1.2169,-1.2213,-1.224,-1.23,-1.2335,-1.2387,-1.2443,-1.2493,-1.2561,-1.2619,-1.2682,-1.2745,-1.277,-1.2787,-1.2785,-1.2784,-1.2793,-1.2793,-1.2782,-1.277,-1.277,-1.277,-1.277,-1.277,-1.277,-1.2006,-1.2059,-1.2094,-1.217,-1.2214,-1.2273,-1.2305,-1.235,-1.2395,-1.2469,-1.2518,-1.2559,-1.2618,-1.2684,-1.2739,-1.2756,-1.2777,-1.277,-1.2792,-1.2791,-1.2793,-1.2795,-1.2785,-1.2774,-1.2774,-1.2788,-1.2788,-1.2788]}]]